Flight Track Log - Related Links

Times and Time Zones

All times are in EDT time to prevent confusion due to time zone crossing. See the RPA3253 flight status page for this flight to view local times or setup timezone preferences in your user account.

Time Position Orientation Groundspeed Altitude Reporting Facility
EDT Latitude Longitude Course Direction KTS MPH feet Rate Location/Type
10:55PM 35.1911 -80.9508 246° West 160 184 1,400  Level Atlanta Center
10:56PM 35.1247 -80.9583 185° South 220 253 3,600 2,178 Climbing Atlanta Center
10:57PM 35.2300 -81.2324 199° South  Level FlightAware Approximate
10:57PM 35.0914 -81.0436 244° Southwest 283 326 6,700  Level Atlanta Center
10:58PM 35.1078 -81.2772 192° South  Level FlightAware Approximate
10:58PM 35.0953 -81.1194 274° West 290 334 9,100  Level Atlanta Center
10:59PM 35.0493 -81.4019 246° West  Level FlightAware Approximate
10:59PM 35.1225 -81.2150 289° West 302 348 11,300  Level Atlanta Center
11:00PM 34.9975 -81.5446 246° West  Level FlightAware Approximate
11:00PM 35.0850 -81.3078 244° Southwest 295 339 14,000  Level Atlanta Center
11:01PM 35.0497 -81.4206 249° West 315 362 16,100 1,983 Climbing Atlanta Center
11:02PM 35.0167 -81.5281 249° West 326 375 18,000 1,916 Climbing Atlanta Center
11:03PM 34.9833 -81.6381 250° West 337 388 19,900 1,866 Climbing Atlanta Center
11:04PM 34.9478 -81.7506 249° West 348 400 21,700 1,550 Climbing Atlanta Center
11:05PM 34.9039 -81.8606 244° Southwest 360 414 23,000 1,200 Climbing Atlanta Center
11:06PM 34.8453 -81.9583 234° Southwest 360 414 24,100 1,190 Climbing Atlanta Center
11:07PM 34.7864 -82.0636 236° Southwest 365 420 25,400 1,250 Climbing Atlanta Center
11:08PM 34.7256 -82.1711 235° Southwest 385 443 26,600 1,160 Climbing Atlanta Center
11:09PM 34.6622 -82.2786 234° Southwest 391 450 27,700 1,100 Climbing Atlanta Center
11:10PM 34.5992 -82.3958 237° Southwest 402 463 28,800 1,050 Climbing Atlanta Center
11:11PM 34.5319 -82.5083 234° Southwest 407 468 29,800 1,000 Climbing Atlanta Center
11:12PM 34.4644 -82.6253 235° Southwest 418 481 30,800 843 Climbing Atlanta Center
11:13PM 34.3947 -82.7372 233° Southwest 423 487 31,500 850 Climbing Atlanta Center
11:14PM 34.3269 -82.8592 236° Southwest 430 495 32,500 1,059 Climbing Atlanta Center
11:15PM 34.2614 -82.9731 235° Southwest 430 495 33,600 750 Climbing Atlanta Center
11:16PM 34.1975 -83.0844 235° Southwest 424 488 34,000 200 Climbing Atlanta Center
11:17PM 34.1317 -83.1956 234° Southwest 424 488 34,000  Level Atlanta Center
11:18PM 34.0675 -83.3067 235° Southwest 418 481 34,000  Level Atlanta Center
11:19PM 34.0075 -83.4072 234° Southwest 418 481 34,000 250 Level Atlanta Center
11:20PM 33.9414 -83.5181 234° Southwest 413 475 34,500 700 Climbing Atlanta Center
11:21PM 33.8769 -83.6283 235° Southwest 413 475 35,400 700 Climbing Atlanta Center
11:22PM 33.8128 -83.7364 234° Southwest 408 470 35,900 300 Climbing Atlanta Center
11:23PM 33.7481 -83.8464 235° Southwest 403 464 36,000 50 Climbing Atlanta Center
11:24PM 33.6731 -83.9689 234° Southwest 409 471 36,000  Level Atlanta Center
11:25PM 33.6042 -84.0811 234° Southwest 414 476 36,000  Level Atlanta Center
11:26PM 33.5375 -84.1958 235° Southwest 420 483 36,000  Level Atlanta Center
11:27PM 33.4683 -84.3128 235° Southwest 430 495 36,000  Level Atlanta Center
11:28PM 33.4011 -84.4269 235° Southwest 430 495 36,000  Level Atlanta Center
11:29PM 33.3319 -84.5411 234° Southwest 430 495 36,000  Level Atlanta Center
11:30PM 33.2606 -84.6550 233° Southwest 430 495 36,000  Level Atlanta Center
11:31PM 33.1994 -84.7589 235° Southwest 430 495 36,000  Level Atlanta Center
11:32PM 33.1297 -84.8747 234° Southwest 430 495 36,000  Level Atlanta Center
11:33PM 33.0622 -84.9881 235° Southwest 435 501 36,000  Level Atlanta Center
11:34PM 32.9903 -85.1061 234° Southwest 435 501 36,000  Level Atlanta Center
11:35PM 32.9183 -85.2092 230° Southwest 429 494 36,000  Level Atlanta Center
11:36PM 32.8442 -85.3194 231° Southwest 429 494 36,000  Level Atlanta Center
11:37PM 32.7678 -85.4297 231° Southwest 434 499 36,000  Level Atlanta Center
11:38PM 32.6933 -85.5419 232° Southwest 440 506 36,000  Level Atlanta Center
11:39PM 32.6169 -85.6542 231° Southwest 440 506 36,000  Level Atlanta Center
11:40PM 32.5422 -85.7636 231° Southwest 440 506 36,000  Level Atlanta Center
11:41PM 32.4614 -85.8803 231° Southwest 455 524 36,000  Level Atlanta Center
11:42PM 32.3844 -85.9917 231° Southwest 447 514 36,000  Level Atlanta Center
11:43PM 32.3139 -86.1033 233° Southwest 441 507 36,000  Level Atlanta Center
11:44PM 32.2367 -86.2119 230° Southwest 441 507 36,000  Level Atlanta Center
11:45PM 32.1722 -86.3233 236° Southwest 434 499 36,000 -500 Level Atlanta Center
11:46PM 32.0950 -86.4317 230° Southwest 434 499 35,000 -1,000 Descending Atlanta Center
11:47PM 32.0156 -86.5447 230° Southwest 434 499 34,000 -500 Descending Atlanta Center
11:48PM 31.9253 -86.6669 229° Southwest 447 514 34,000  Level Atlanta Center
11:49PM 31.8500 -86.7772 231° Southwest 447 514 34,000  Level Atlanta Center
11:50PM 31.7722 -86.8872 230° Southwest 447 514 34,000  Level Atlanta Center
11:51PM 31.6944 -86.9969 230° Southwest 442 509 34,000  Level Atlanta Center
11:53PM 31.5294 -87.2328 231° Southwest 446 513 34,000  Level Houston Center
11:54PM 31.4511 -87.3461 231° Southwest 447 514 34,000  Level Houston Center
11:55PM 31.3708 -87.4564 230° Southwest 446 513 34,000  Level Houston Center
11:56PM 31.2933 -87.5678 231° Southwest 443 510 34,000  Level Houston Center
11:57PM 31.2139 -87.6806 231° Southwest 447 514 34,000  Level Houston Center
11:58PM 31.1372 -87.7872 230° Southwest 453 521 34,000  Level Houston Center
11:59PM 31.0725 -87.9128 239° Southwest 452 520 34,000  Level Houston Center
12:00AM 31.0111 -88.0386 240° Southwest 448 516 34,000  Level Houston Center
12:01AM 30.9469 -88.1653 239° Southwest 455 524 34,000  Level Houston Center
12:02AM 30.8708 -88.3181 240° Southwest 454 522 34,000  Level Houston Center
12:03AM 30.8106 -88.4431 241° Southwest 446 513 34,000 -893 Level Houston Center
12:04AM 30.7483 -88.5678 240° Southwest 444 511 32,200 -1,983 Descending Houston Center
12:05AM 30.6892 -88.6875 240° Southwest 451 519 30,000 -2,231 Descending Houston Center
12:06AM 30.6233 -88.8169 239° Southwest 465 535 27,700 -2,308 Descending Houston Center
12:08AM 30.4956 -89.0753 240° Southwest 439 505 23,000 -2,308 Descending Houston Center
12:09AM 30.4603 -89.1489 241° Southwest 432 497 21,700 -2,197 Descending Houston Center
12:09AM 30.4256 -89.2181 240° Southwest 423 487 20,400 -2,093 Descending Houston Center
12:10AM 30.3778 -89.3089 239° Southwest 415 478 18,700 -1,909 Descending Houston Center
12:11AM 30.3225 -89.4194 240° Southwest 400 460 16,900 -1,955 Descending Houston Center
12:13AM 30.2561 -89.5542 240° Southwest 378 435 14,400 -1,937 Descending Houston Center
12:13AM 30.2131 -89.6406 240° Southwest 365 420 12,800 -1,800 Descending Houston Center
12:14AM 30.1697 -89.7292 241° Southwest 353 406 11,100 -991 Descending Houston Center
12:15AM 30.1242 -89.8261 242° Southwest 342 394 10,900 -496 Descending Houston Center
12:16AM 30.1081 -89.9286 260° West 325 374 10,100 -1,190 Descending Houston Center
12:17AM 30.0956 -90.0219 261° West 300 345 8,500 -1,636 Descending Houston Center
12:18AM 30.0836 -90.1128 261° West 290 334 6,800 -1,736 Descending Houston Center
12:19AM 30.0719 -90.2017 261° West 283 326 5,000 -1,686 Descending Houston Center
12:20AM 30.0622 -90.2872 263° West 277 319 3,400 -1,190 Descending Houston Center
12:21AM 30.0669 -90.3667 274° West 257 296 2,600 -800 Descending Houston Center
12:22AM 30.0208 -90.3775 191° South 216 249 1,800 -940 Descending Houston Center
12:24AM 30.0053 -90.3175 107° East 148 170 500 -645 Descending Houston Center
12:24AM 29.9967 -90.2825 106° East 175 201 500  Level Houston Center

Login

Don't have an account? Register now (free) for customized features, flight alerts, and more!